{"data":{"norad_id":52627,"intl_designator":"2022-052AF","name":"STARLINK-3992","alt_names":[],"object_type":"PAYLOAD","status":"ACTIVE","operator":null,"country":"US","launch_date":"2022-05-14","launch_site_code":"AFETR","launch_vehicle":null,"mission":null,"orbit_class":"UNKNOWN","rcs_meters":null,"size_class":null,"mass_kg":null,"dimensions":null,"purposes":["comms"],"wikipedia_slug":null,"has_3d_model":false,"image_url":null,"decayed_at":null,"tle_current":{"epoch":"2026-05-24T18:13:15.693888Z","epoch_age_seconds":106583,"freshness":"FRESH","line1":"1 52627U 22052AF  26144.75920942  .00000069  00000+0  22413-4 0  9998","line2":"2 52627  53.2137 287.6295 0001223 101.7848 258.3282 15.08834794222488","mean_motion":15.08834794,"eccentricity":0.0001223,"inclination_deg":53.2137,"raan_deg":287.6295,"arg_perigee_deg":101.7848,"mean_anomaly_deg":258.3282,"bstar":2.2413e-5,"rev_number":22248,"period_min":95.437883970218,"perigee_km":538.91324295147,"apogee_km":540.60536038686,"semimajor_km":6917.8963016692,"source":"CELESTRAK","updated_at":"2026-05-25T13:38:17.202990Z"}}}